Wind_Speed
33 34 34 34 35 37 37 37 38 38 37 37 37 36 35 35 37 37 36 36 38 34 30 25 19 14 8 5 3 4 11 21 32 37 39 36 18 16 17 14 24 31 38
32 33 33 34 35 37 36 37 37 38 36 36 36 34 34 36 35 37 35 34 36 34 30 27 20 17 10 4 5 5 8 15 21 22 27 32 26 24 23 21 20 23 27
29 30 32 32 34 36 35 36 36 36 36 36 36 34 32 34 32 35 35 33 34 33 32 26 22 18 12 6 2 6 9 12 16 21 23 24 26 26 27 28 27 26 26
29 30 30 32 33 35 36 36 36 36 35 35 35 33 29 33 33 32 34 33 31 33 30 29 23 20 14 8 5 4 9 13 15 18 21 24 24 25 28 29 32 31 32
29 30 30 31 33 34 35 36 35 35 35 34 34 32 29 32 31 31 31 32 30 29 31 28 27 22 17 11 7 5 4 10 15 13 16 20 22 23 25 27 30 34 35
28 29 30 30 32 34 34 34 34 34 34 34 33 32 31 31 31 30 28 28 29 28 28 28 25 25 21 15 10 7 2 4 9 13 15 15 18 21 23 25 28 30 33
29 30 29 30 31 34 34 34 34 34 34 33 32 30 30 29 29 29 26 25 27 27 26 26 26 23 23 19 13 9 5 4 5 9 12 13 13 15 18 21 23 28 30
29 29 29 31 31 33 33 33 34 34 33 33 31 29 29 29 28 27 26 24 23 25 24 24 23 23 20 19 15 10 10 10 9 10 10 13 13 13 15 18 19 22 25
28 28 29 30 31 32 34 33 33 33 33 31 30 29 29 29 29 27 26 25 22 22 23 21 21 22 21 18 14 13 9 9 9 9 11 13 15 17 17 15 16 18 23
28 27 29 29 31 34 34 34 34 31 32 30 28 29 30 30 29 28 26 26 24 22 21 22 21 20 20 18 17 13 12 10 10 10 10 12 17 16 17 20 20 19 19
26 26 26 30 34 33 33 34 34 32 30 28 28 28 29 29 29 29 27 25 25 24 22 21 22 21 19 18 16 14 13 11 11 11 11 9 10 14 16 17 19 19 18
25 24 26 31 32 33 33 36 33 30 29 28 28 29 29 28 29 28 27 26 24 24 24 23 22 21 19 18 16 15 12 10 8 9 9 8 7 9 13 17 19 19 20
22 23 26 31 32 33 35 36 31 30 28 28 28 27 28 29 29 28 26 25 24 23 23 23 22 21 20 19 17 16 14 10 8 6 6 6 6 6 6 8 12 15 19
21 25 33 41 39 30 35 33 31 30 28 28 28 28 29 31 30 29 28 26 25 23 23 23 23 22 21 20 19 16 15 13 10 7 6 6 5 4 3 4 6 11 15
23 30 34 32 34 34 31 32 30 29 28 27 27 28 30 31 31 30 30 29 27 25 24 23 23 23 21 20 19 18 16 15 13 10 8 8 7 7 7 7 7 7 8
26 31 31 35 33 29 31 31 29 28 27 26 27 29 31 30 30 30 30 30 28 27 25 24 23 21 21 20 18 19 19 17 15 13 12 11 11 10 10 10 10 8 6
24 28 32 32 29 28 30 29 28 27 27 27 28 30 31 32 32 32 32 32 31 29 27 26 25 23 21 20 19 18 19 20 18 16 14 14 14 13 12 11 10 9 7
28 33 35 32 32 28 29 28 27 26 26 26 28 30 31 31 32 33 33 33 31 29 28 26 26 24 22 20 18 18 18 20 20 19 18 16 15 16 15 14 12 11 11
33 37 41 36 32 27 30 28 25 25 25 27 29 31 32 32 33 34 34 34 32 30 29 28 27 26 25 24 21 19 19 19 20 22 22 20 18 17 17 17 16 15 15
36 41 39 30 23 28 29 27 25 24 25 27 30 31 33 35 36 37 37 37 36 34 32 30 29 28 28 27 26 22 20 21 21 22 23 25 23 20 19 19 20 19 18
40 36 26 21 27 29 28 26 26 25 28 30 32 34 37 38 39 39 39 39 37 34 32 31 30 30 30 30 28 24 20 19 21 22 24 25 26 26 24 21 20 22 22
33 26 23 26 29 28 27 26 24 27 30 32 35 37 39 40 41 42 42 41 39 37 35 33 32 32 31 31 32 30 26 22 20 21 24 27 28 28 27 25 23 22 23
24 25 27 29 30 29 28 27 27 30 34 37 38 39 41 41 42 43 43 43 42 40 38 35 34 33 32 32 32 31 28 25 22 22 22 25 29 29 29 29 27 25 23
26 28 30 30 29 29 29 28 30 35 39 42 42 44 44 41 41 44 46 46 44 41 39 36 34 33 33 33 31 28 26 24 23 22 23 23 25 29 29 29 29 27 25
29 29 30 30 29 28 29 32 36 40 43 46 46 45 40 36 39 41 43 42 42 40 38 37 36 35 34 31 29 27 26 25 24 23 24 24 26 27 29 28 30 29 27
30 30 29 29 29 30 33 38 41 44 46 46 44 37 32 36 39 44 45 42 39 39 39 39 38 35 32 30 28 26 24 22 22 22 22 22 24 27 29 28 28 29 28
Wind_Direction
332 333 335 339 341 343 344 346 347 346 343 343 342 342 345 350 353 353 354 353 357 359 357 357 348 345 341 273 263 223 207 218 224 228 240 251 272 219 225 233 221 220 228
329 329 335 337 339 342 346 346 348 347 344 343 342 342 344 350 354 355 356 357 358 0 2 360 354 346 348 326 243 217 213 214 233 237 235 244 247 237 231 231 231 223 224
330 335 335 336 338 341 346 347 348 348 344 344 341 343 343 347 353 356 357 358 359 1 5 2 356 353 343 347 299 222 209 211 218 234 244 244 244 244 239 235 232 232 231
333 334 336 337 339 343 346 347 347 347 345 342 340 342 341 346 350 356 357 358 359 2 4 8 360 355 353 341 340 298 220 215 219 226 234 242 243 239 239 237 235 232 231
333 333 335 338 339 343 346 346 345 345 344 342 341 343 344 344 347 349 353 357 357 1 3 6 8 359 357 342 330 338 263 227 219 229 236 240 244 242 239 238 233 234 236
331 332 333 337 338 342 345 345 344 343 343 342 342 343 343 344 345 348 347 354 357 358 1 5 8 9 5 357 333 311 317 250 229 232 235 241 241 242 239 234 231 230 231
327 329 330 335 339 342 343 343 343 343 343 342 343 344 344 345 343 346 346 350 355 356 358 1 8 9 11 8 358 330 292 251 241 241 235 232 232 235 234 231 227 227 229
324 327 331 335 340 341 341 340 342 343 343 343 343 344 344 344 345 345 345 346 348 352 354 358 3 10 6 9 9 356 331 306 289 264 248 244 239 227 229 228 229 232 236
323 328 332 334 338 339 340 341 344 343 342 344 345 344 345 344 345 347 344 345 343 344 347 347 353 0 5 3 2 2 348 334 319 294 276 267 253 241 227 226 226 232 236
325 330 333 336 341 340 339 342 344 344 342 346 346 343 345 344 345 345 344 343 342 340 337 338 341 342 346 355 358 351 340 331 327 321 306 275 255 248 244 242 234 235 235
327 331 335 335 338 340 339 343 343 344 343 346 345 344 344 342 342 344 343 342 339 339 337 329 327 332 336 337 345 351 348 335 322 313 311 304 266 249 245 241 239 237 238
327 330 332 335 340 339 341 341 342 343 343 344 344 343 342 342 341 341 341 341 338 336 335 333 327 322 324 327 325 331 339 340 332 320 310 305 293 269 251 240 238 240 242
325 332 335 340 339 336 340 336 337 341 341 341 342 342 340 340 341 342 341 340 339 337 335 332 330 325 318 318 319 317 321 325 325 328 320 312 301 283 259 231 230 242 255
324 327 332 333 333 335 335 333 335 338 340 339 340 340 340 339 341 341 341 340 339 336 334 332 330 328 323 313 310 311 311 310 305 301 306 311 304 298 275 249 238 246 286
324 331 330 332 332 327 331 332 334 336 337 335 337 338 340 341 340 340 339 338 336 335 333 331 329 327 325 321 306 300 298 301 295 284 270 266 272 279 279 271 269 275 307
331 335 337 332 331 335 334 334 334 331 334 333 336 338 338 339 338 338 337 335 335 334 331 329 327 324 321 320 311 295 288 286 286 281 269 257 254 257 266 276 270 268 279
337 339 338 333 328 330 332 333 330 330 332 334 337 338 337 335 337 338 336 336 332 330 327 325 323 321 318 315 313 303 287 278 277 279 272 264 255 248 251 256 264 256 248
327 333 336 332 325 323 331 332 329 330 327 332 333 335 335 333 334 334 333 330 328 326 322 320 318 318 316 312 308 305 299 286 273 268 269 265 260 253 246 244 244 244 238
322 327 333 330 323 324 330 329 328 328 327 330 331 333 332 331 332 331 328 326 326 324 319 318 318 317 315 311 306 299 293 287 280 267 262 263 261 258 251 244 240 236 237
323 326 327 325 323 327 327 327 328 326 325 328 329 329 329 331 330 327 325 325 325 323 318 314 314 313 311 310 309 308 293 280 272 270 260 255 255 255 253 247 240 237 233
323 325 325 324 326 329 326 326 325 324 326 328 328 327 329 329 325 323 323 323 322 320 314 311 310 307 307 309 309 307 299 283 274 265 260 256 251 250 250 245 242 237 234
325 325 325 323 327 327 324 324 322 322 324 325 327 327 325 324 323 322 322 322 322 319 314 310 306 304 306 307 307 308 305 298 285 269 260 254 251 246 244 244 241 236 234
326 326 327 328 327 324 325 323 322 321 322 323 324 323 322 323 324 325 326 325 322 319 315 311 309 308 308 307 306 305 303 298 289 278 264 257 249 246 242 239 239 237 234
328 329 328 326 325 325 325 321 321 320 321 321 321 322 323 325 331 334 333 329 324 320 317 314 311 308 308 307 304 300 297 292 286 276 268 257 253 247 244 238 236 235 234
329 328 327 326 328 327 320 319 322 321 320 321 324 324 326 334 337 338 335 329 324 322 319 317 315 313 312 307 303 300 296 291 286 279 272 261 249 243 240 239 235 233 232
328 327 326 326 326 324 323 322 322 322 323 323 323 323 331 340 343 342 335 329 326 323 319 315 311 308 308 306 304 302 299 295 289 283 276 266 252 240 234 234 234 233 232
Height
5797 5791 5785 5778 5771 5764 5757 5749 5742 5735 5727 5719 5711 5705 5698 5690 5682 5674 5666 5657 5648 5639 5631 5624 5619 5614 5611 5609 5608 5609 5610 5613 5615 5620 5621 5625 5629 5636 5640 5643 5647 5652 5656
5794 5787 5781 5774 5767 5760 5753 5746 5739 5732 5725 5717 5709 5702 5695 5687 5680 5672 5665 5657 5649 5640 5631 5625 5620 5615 5612 5609 5608 5609 5610 5612 5613 5617 5621 5624 5628 5632 5636 5639 5643 5647 5651
5789 5782 5775 5769 5763 5757 5750 5743 5737 5728 5721 5714 5707 5700 5693 5685 5678 5671 5664 5656 5649 5641 5633 5626 5621 5616 5613 5610 5608 5608 5609 5611 5613 5614 5616 5620 5624 5626 5631 5635 5639 5643 5646
5784 5778 5771 5765 5760 5754 5747 5739 5732 5726 5718 5711 5705 5698 5691 5683 5676 5670 5662 5655 5649 5642 5635 5628 5622 5617 5614 5611 5609 5608 5607 5609 5611 5613 5614 5616 5618 5622 5625 5629 5633 5636 5640
5780 5774 5768 5763 5757 5750 5743 5736 5730 5723 5716 5709 5702 5695 5688 5681 5674 5668 5662 5655 5649 5643 5636 5630 5623 5618 5614 5611 5609 5607 5605 5606 5608 5609 5610 5611 5612 5615 5618 5621 5625 5628 5632
5776 5770 5765 5758 5753 5746 5740 5733 5727 5721 5713 5705 5699 5692 5686 5679 5672 5667 5661 5655 5648 5643 5637 5631 5625 5619 5615 5612 5609 5607 5605 5604 5605 5606 5607 5608 5609 5611 5612 5615 5617 5621 5625
5772 5767 5761 5756 5749 5742 5736 5730 5724 5717 5710 5703 5696 5689 5684 5678 5671 5665 5660 5654 5648 5643 5638 5633 5626 5621 5617 5612 5609 5608 5605 5603 5603 5603 5603 5604 5606 5606 5608 5610 5612 5614 5618
5770 5764 5758 5752 5745 5739 5733 5727 5721 5714 5707 5700 5693 5687 5681 5676 5670 5664 5658 5652 5647 5642 5638 5633 5628 5623 5618 5614 5610 5608 5606 5604 5602 5600 5600 5600 5601 5602 5604 5606 5608 5610 5613
5765 5760 5754 5749 5743 5736 5730 5724 5717 5710 5704 5697 5691 5685 5679 5673 5668 5662 5656 5651 5645 5641 5637 5633 5629 5624 5619 5615 5611 5608 5605 5603 5601 5600 5598 5598 5597 5598 5600 5602 5604 5606 5608
5761 5756 5751 5746 5739 5733 5727 5720 5714 5708 5701 5694 5688 5683 5677 5671 5665 5660 5654 5648 5643 5639 5635 5631 5627 5623 5619 5615 5611 5607 5604 5602 5600 5598 5596 5594 5593 5593 5595 5597 5599 5601 5603
5757 5752 5748 5742 5736 5729 5723 5716 5710 5704 5698 5692 5686 5680 5675 5670 5664 5657 5651 5646 5641 5636 5632 5628 5624 5621 5617 5613 5610 5606 5603 5600 5598 5596 5594 5591 5589 5589 5590 5592 5594 5597 5599
5753 5749 5744 5738 5731 5725 5719 5713 5707 5701 5694 5689 5683 5678 5673 5667 5661 5655 5649 5644 5639 5634 5629 5625 5621 5617 5614 5611 5608 5604 5601 5598 5596 5594 5592 5590 5588 5586 5586 5587 5589 5592 5594
5749 5745 5740 5734 5728 5721 5715 5709 5703 5697 5691 5686 5681 5676 5670 5664 5658 5652 5646 5641 5636 5631 5626 5621 5617 5613 5610 5607 5604 5602 5599 5596 5594 5592 5591 5589 5587 5585 5584 5584 5585 5587 5588
5745 5740 5735 5728 5722 5716 5711 5705 5699 5693 5687 5682 5677 5672 5666 5660 5654 5648 5642 5637 5632 5628 5623 5618 5614 5610 5606 5603 5600 5598 5595 5593 5592 5590 5588 5587 5586 5585 5583 5583 5583 5584 5582
5740 5735 5729 5723 5717 5711 5706 5700 5694 5688 5684 5679 5674 5668 5663 5657 5650 5644 5638 5633 5628 5624 5619 5615 5610 5606 5602 5599 5595 5593 5592 5590 5588 5587 5586 5584 5584 5583 5582 5581 5581 5580 5579
5736 5730 5725 5719 5712 5706 5701 5696 5690 5684 5680 5675 5670 5664 5658 5653 5647 5641 5635 5629 5624 5619 5615 5610 5606 5602 5597 5594 5590 5588 5586 5585 5584 5582 5582 5581 5580 5579 5579 5578 5578 5577 5576
5730 5725 5720 5713 5707 5702 5697 5691 5686 5680 5675 5670 5665 5660 5654 5648 5642 5636 5630 5624 5619 5614 5609 5605 5600 5596 5592 5588 5585 5582 5580 5579 5578 5577 5576 5576 5576 5576 5575 5575 5574 5574 5574
5725 5720 5714 5709 5703 5698 5693 5687 5682 5676 5671 5667 5661 5656 5651 5645 5639 5632 5626 5620 5615 5609 5604 5599 5594 5590 5586 5582 5579 5576 5574 5572 5571 5571 5570 5570 5570 5570 5571 5571 5571 5571 5571
5720 5714 5708 5702 5697 5692 5688 5682 5677 5673 5667 5662 5656 5651 5646 5640 5634 5628 5622 5616 5609 5603 5598 5592 5588 5583 5579 5575 5573 5570 5567 5565 5564 5563 5563 5564 5564 5564 5565 5565 5566 5566 5567
5714 5708 5701 5696 5691 5687 5683 5677 5673 5668 5663 5658 5652 5647 5641 5635 5628 5621 5615 5608 5601 5595 5590 5585 5580 5576 5571 5567 5564 5563 5560 5558 5556 5555 5555 5555 5556 5557 5558 5559 5560 5561 5562
5707 5701 5695 5692 5687 5682 5677 5672 5667 5662 5657 5652 5646 5641 5634 5628 5621 5614 5607 5601 5594 5588 5582 5577 5571 5566 5562 5558 5555 5553 5550 5548 5547 5546 5546 5546 5547 5549 5550 5552 5553 5555 5557
5701 5696 5692 5687 5682 5676 5672 5667 5662 5656 5651 5646 5640 5633 5627 5621 5613 5606 5599 5592 5585 5579 5572 5567 5562 5557 5553 5549 5545 5542 5540 5538 5537 5536 5536 5536 5537 5539 5541 5544 5545 5547 5549
5696 5691 5687 5682 5676 5671 5666 5660 5656 5650 5644 5638 5633 5626 5619 5612 5605 5597 5589 5582 5575 5568 5562 5557 5553 5548 5544 5540 5536 5532 5529 5527 5526 5525 5525 5526 5527 5529 5532 5534 5537 5539 5542
5691 5686 5681 5676 5671 5665 5660 5655 5650 5644 5637 5631 5624 5616 5609 5601 5594 5587 5580 5573 5567 5560 5553 5548 5543 5538 5534 5530 5526 5522 5519 5517 5515 5515 5515 5516 5517 5519 5522 5525 5528 5531 5534
5686 5681 5675 5669 5664 5660 5655 5649 5643 5636 5628 5621 5613 5605 5598 5591 5585 5579 5572 5564 5558 5552 5545 5539 5533 5528 5523 5519 5515 5512 5509 5507 5506 5505 5504 5505 5506 5508 5512 5515 5519 5522 5526
5680 5675 5669 5664 5659 5655 5649 5642 5634 5626 5617 5609 5603 5596 5591 5585 5578 5571 5564 5556 5547 5540 5534 5528 5522 5517 5513 5508 5505 5502 5499 5498 5496 5495 5495 5495 5496 5499 5502 5506 5510 5514 5517